Time_in_sec,gx,gy,gz
1314271466.30047774,0.04514858,0.07637108,-0.99605676
1314271466.34949207,0.04507486,0.07630070,-0.99606549
1314271466.40145016,0.04552666,0.07643183,-0.99603489
1314271466.44844174,0.04541193,0.07633673,-0.99604742
1314271466.49800158,0.04559215,0.07648671,-0.99602768
1314271466.54849005,0.04551102,0.07649899,-0.99603045
1314271466.60075188,0.04563769,0.07644809,-0.99602856
1314271466.64855242,0.04559496,0.07662749,-0.99601673
1314271466.70048714,0.04572196,0.07661065,-0.99601220
1314271466.74953318,0.04593187,0.07650823,-0.99601042
1314271466.80047154,0.04592491,0.07624894,-0.99603062
1314271466.84960604,0.04589263,0.07650796,-0.99601225
1314271466.89785838,0.04596159,0.07659043,-0.99600273
1314271466.94859338,0.04583337,0.07661624,-0.99600665
1314271467.00047040,0.04573951,0.07655158,-0.99601594
1314271467.05033684,0.04548447,0.07636783,-0.99604172
1314271467.10050249,0.04573522,0.07668890,-0.99600557
1314271467.14978862,0.04555217,0.07674572,-0.99600959
1314271467.20048308,0.04549126,0.07663527,-0.99602087
1314271467.24960923,0.04571584,0.07651319,-0.99601998
1314271467.30047178,0.04545488,0.07645564,-0.99603634
1314271467.34859991,0.04525193,0.07649770,-0.99604235
1314271467.40048265,0.04527037,0.07658101,-0.99603511
1314271467.44853473,0.04502074,0.07666217,-0.99604018
1314271467.50049400,0.04482106,0.07640356,-0.99606906
1314271467.54951262,0.04480550,0.07649455,-0.99606278
1314271467.60047579,0.04475390,0.07637191,-0.99607450
1314271467.64847374,0.04478377,0.07645879,-0.99606650
1314271467.69759226,0.04492361,0.07659070,-0.99605007
1314271467.74961209,0.04481328,0.07664625,-0.99605076
1314271467.80088258,0.04478913,0.07646358,-0.99606589
1314271467.84769368,0.04491157,0.07649596,-0.99605789
1314271467.89749479,0.04501797,0.07647349,-0.99605481
1314271467.94948769,0.04462490,0.07661066,-0.99606196
1314271468.00055957,0.04439105,0.07644413,-0.99608520
1314271468.04958296,0.04421811,0.07638830,-0.99609718
1314271468.09743810,0.04399048,0.07615145,-0.99612539
1314271468.14847088,0.04415431,0.07612029,-0.99612052
1314271468.20047903,0.04397789,0.07646286,-0.99610209
1314271468.25251174,0.04387304,0.07647628,-0.99610568
1314271468.29756188,0.04364620,0.07628681,-0.99613018
1314271468.35034800,0.04387599,0.07631829,-0.99611767
1314271468.40044475,0.04397217,0.07626743,-0.99611733
1314271468.44851422,0.04376067,0.07651107,-0.99610796
1314271468.49830222,0.04350719,0.07612602,-0.99614856
1314271468.54847288,0.04363560,0.07609247,-0.99614551
1314271468.59761453,0.04359564,0.07604605,-0.99615080
1314271468.65156651,0.04349223,0.07609088,-0.99615190
1314271468.70161033,0.04355926,0.07609428,-0.99614871
1314271468.75020194,0.04335360,0.07596834,-0.99616729
1314271468.80048466,0.04341036,0.07634807,-0.99613579
1314271468.84961963,0.04357005,0.07633047,-0.99613017
1314271468.89816999,0.04364349,0.07623474,-0.99613428
1314271468.94859266,0.04374306,0.07624125,-0.99612942
1314271469.00160098,0.04378960,0.07599995,-0.99614581
1314271469.05038786,0.04401359,0.07609977,-0.99612832
1314271469.10152054,0.04396395,0.07616714,-0.99612536
1314271469.14949298,0.04409977,0.07625002,-0.99611302
1314271469.20047045,0.04425962,0.07634882,-0.99609836
1314271469.24960208,0.04429682,0.07652973,-0.99608282
1314271469.29802489,0.04445889,0.07639705,-0.99608579
1314271469.34848142,0.04451989,0.07635822,-0.99608604
1314271469.40126872,0.04439619,0.07657635,-0.99607482
1314271469.44848871,0.04456384,0.07665711,-0.99606112
1314271469.50050759,0.04451621,0.07652201,-0.99607364
1314271469.54949474,0.04451240,0.07669708,-0.99606034
1314271469.59247994,0.04439109,0.07643214,-0.99608612
1314271469.64859104,0.04439298,0.07649339,-0.99608133
1314271469.70337582,0.04405885,0.07654595,-0.99609213
1314271469.74961138,0.04380185,0.07651937,-0.99610551
1314271469.80102301,0.04413073,0.07655023,-0.99608862
1314271469.84993219,0.04442825,0.07638184,-0.99608832
1314271469.90150309,0.04447426,0.07621152,-0.99609931
1314271469.94984913,0.04474947,0.07611430,-0.99609442
1314271470.00179219,0.04470995,0.07609123,-0.99609796
1314271470.04860568,0.04460415,0.07633000,-0.99608443
1314271470.10144734,0.04459278,0.07622255,-0.99609317
1314271470.14860272,0.04458690,0.07638008,-0.99608137
1314271470.20159531,0.04445203,0.07629803,-0.99609368
1314271470.24848461,0.04470804,0.07644957,-0.99607061
1314271470.30162287,0.04467413,0.07658772,-0.99606152
1314271470.34966946,0.04461176,0.07666260,-0.99605855
1314271470.40168571,0.04444381,0.07664796,-0.99606719
1314271470.44963431,0.04458761,0.07666451,-0.99605949
1314271470.49760723,0.04459500,0.07671790,-0.99605504
1314271470.54960513,0.04449170,0.07630753,-0.99609119
1314271470.59762335,0.04443946,0.07621905,-0.99610029
1314271470.64962220,0.04419959,0.07645150,-0.99609315
1314271470.69763136,0.04424077,0.07657261,-0.99608202
1314271470.74953699,0.04441065,0.07691442,-0.99604812
1314271470.80045319,0.04425060,0.07693936,-0.99605332
1314271470.84860349,0.04379655,0.07694057,-0.99607330
1314271470.89747262,0.04403503,0.07717575,-0.99604459
1314271470.94848156,0.04380431,0.07702947,-0.99606608
1314271470.99760604,0.04400037,0.07701307,-0.99605871
1314271471.05251527,0.04414247,0.07694311,-0.99605783
1314271471.09759331,0.04436221,0.07693351,-0.99604881
1314271471.14960551,0.04437771,0.07697832,-0.99604466
1314271471.20046091,0.04417534,0.07689913,-0.99605977
1314271471.24851036,0.04406891,0.07707106,-0.99605119
1314271471.29833102,0.04389418,0.07690588,-0.99607168
1314271471.34951162,0.04403052,0.07704181,-0.99605516
1314271471.40223718,0.04407394,0.07719255,-0.99604156
1314271471.45247746,0.04416343,0.07696719,-0.99605504
1314271471.50180864,0.04411796,0.07715087,-0.99604284
1314271471.55036020,0.04406748,0.07723345,-0.99603868
1314271471.60084701,0.04381894,0.07759806,-0.99602131
1314271471.64960027,0.04376791,0.07764977,-0.99601952
1314271471.69819283,0.04351756,0.07764092,-0.99603118
1314271471.74846864,0.04332753,0.07770230,-0.99603468
1314271471.80462146,0.04336551,0.07762025,-0.99603942
1314271471.85249496,0.04347071,0.07780366,-0.99602053
1314271471.90161991,0.04358695,0.07764866,-0.99602754
1314271471.95023727,0.04369873,0.07782924,-0.99600855
1314271472.00116253,0.04385571,0.07801429,-0.99598717
1314271472.04858994,0.04401060,0.07798949,-0.99598228
1314271472.09804821,0.04392198,0.07798751,-0.99598635
1314271472.14960980,0.04391984,0.07786520,-0.99599601
1314271472.20160818,0.04415998,0.07795160,-0.99597864
1314271472.24857116,0.04421922,0.07808448,-0.99596560
1314271472.30112982,0.04446683,0.07815418,-0.99594911
1314271472.34948754,0.04434185,0.07816355,-0.99595394
1314271472.40056849,0.04428301,0.07787273,-0.99597934
1314271472.44860291,0.04425902,0.07786075,-0.99598135
1314271472.49803925,0.04408657,0.07794692,-0.99598225
1314271472.54859972,0.04411852,0.07789009,-0.99598529
1314271472.60051036,0.04384852,0.07808775,-0.99598173
1314271472.64992666,0.04390947,0.07797393,-0.99598796
1314271472.70085788,0.04389964,0.07798884,-0.99598723
1314271472.74951649,0.04372156,0.07816452,-0.99598129
1314271472.80046177,0.04379265,0.07824845,-0.99597158
1314271472.84845042,0.04388037,0.07823231,-0.99596898
1314271472.90579915,0.04386792,0.07841016,-0.99595555
1314271472.94845510,0.04406461,0.07848046,-0.99594133
1314271473.00044942,0.04397986,0.07843542,-0.99594862
1314271473.04848909,0.04395704,0.07835887,-0.99595566
1314271473.10045624,0.04393323,0.07827924,-0.99596297
1314271473.14952874,0.04409280,0.07824686,-0.99595846
1314271473.19247961,0.04424365,0.07840031,-0.99593970
1314271473.24945378,0.04426877,0.07833250,-0.99594392
1314271473.29764032,0.04448456,0.07863126,-0.99591076
1314271473.34848619,0.04468184,0.07852473,-0.99591034
1314271473.40060210,0.04439200,0.07859218,-0.99591798
1314271473.45021558,0.04437372,0.07854035,-0.99592288
1314271473.50059414,0.04450661,0.07884921,-0.99589255
1314271473.54957938,0.04464760,0.07891042,-0.99588139
1314271473.60044909,0.04472103,0.07905605,-0.99586654
1314271473.64862776,0.04497914,0.07911522,-0.99585022
1314271473.69752336,0.04504761,0.07890932,-0.99586346
1314271473.74951506,0.04507180,0.07873249,-0.99587636
1314271473.79760170,0.04491096,0.07884128,-0.99587502
1314271473.84951329,0.04476265,0.07847811,-0.99591038
1314271473.90061522,0.04471022,0.07817773,-0.99593636
1314271473.94955707,0.04464781,0.07805667,-0.99594866
1314271474.00065160,0.04461910,0.07830581,-0.99593039
1314271474.04951668,0.04463137,0.07847575,-0.99591646
1314271474.09850740,0.04441377,0.07832348,-0.99593818
1314271474.14851928,0.04449598,0.07836845,-0.99593097
1314271474.19753289,0.04430640,0.07819865,-0.99595277
1314271474.25250053,0.04455229,0.07802715,-0.99595525
1314271474.30045629,0.04418114,0.07807731,-0.99596785
1314271474.34949780,0.04410015,0.07802770,-0.99597533
1314271474.40152407,0.04397288,0.07788781,-0.99599190
1314271474.44951987,0.04388342,0.07777698,-0.99600451
1314271474.49793959,0.04408479,0.07780757,-0.99599323
1314271474.54961300,0.04408554,0.07796261,-0.99598107
1314271474.59790039,0.04405324,0.07800109,-0.99597949
1314271474.64845753,0.04394675,0.07778679,-0.99600095
1314271474.70045924,0.04407941,0.07782923,-0.99599177
1314271474.74945498,0.04390613,0.07796439,-0.99598886
1314271474.80139804,0.04364034,0.07803009,-0.99599539
1314271474.84852242,0.04398793,0.07795470,-0.99598601
1314271474.89829874,0.04409470,0.07805567,-0.99597338
1314271474.94960165,0.04416678,0.07789180,-0.99598301
1314271475.00163674,0.04418128,0.07800697,-0.99597336
1314271475.04848218,0.04410519,0.07793535,-0.99598234
1314271475.10165668,0.04393131,0.07794135,-0.99598955
1314271475.14954019,0.04392461,0.07803535,-0.99598249
1314271475.18848324,0.04410181,0.07809741,-0.99596979
1314271475.24858904,0.04405847,0.07786375,-0.99599000
1314271475.29810047,0.04423429,0.07804302,-0.99596818
1314271475.34859371,0.04428390,0.07806711,-0.99596409
1314271475.40053177,0.04417817,0.07823653,-0.99595549
1314271475.44997430,0.04437303,0.07826990,-0.99594420
1314271475.50065970,0.04450448,0.07829546,-0.99593633
1314271475.54948020,0.04430077,0.07818223,-0.99595431
1314271475.60063410,0.04445246,0.07818751,-0.99594713
1314271475.64847589,0.04446551,0.07826873,-0.99594017
1314271475.70196176,0.04437404,0.07809897,-0.99595758
1314271475.74848366,0.04430666,0.07825220,-0.99594855
1314271475.80164170,0.04412423,0.07801930,-0.99597492
1314271475.84850454,0.04409344,0.07814532,-0.99596640
1314271475.90074992,0.04411894,0.07809048,-0.99596958
1314271475.94948864,0.04417615,0.07792915,-0.99597968
1314271476.00121689,0.04436828,0.07784962,-0.99597736
1314271476.04859829,0.04439997,0.07757516,-0.99599736
1314271476.10198402,0.04432435,0.07779072,-0.99598391
1314271476.14960837,0.04426433,0.07784596,-0.99598227
1314271476.19354892,0.04425033,0.07791743,-0.99597730
1314271476.24967670,0.04414547,0.07804900,-0.99597165
1314271476.30152655,0.04443975,0.07806605,-0.99595723
1314271476.34951019,0.04459847,0.07806968,-0.99594985
1314271476.40053058,0.04453074,0.07804389,-0.99595490
1314271476.44962811,0.04423856,0.07822739,-0.99595353
1314271476.49779701,0.04443159,0.07840077,-0.99593130
1314271476.54969501,0.04440911,0.07823633,-0.99594523
1314271476.59761095,0.04432345,0.07849954,-0.99592834
1314271476.65087175,0.04428375,0.07820819,-0.99595303
1314271476.69760346,0.04435513,0.07854789,-0.99592312
1314271476.74951434,0.04427703,0.07854927,-0.99592648
1314271476.78952360,0.04409802,0.07851260,-0.99593732
1314271476.84953189,0.04403346,0.07871195,-0.99592444
1314271476.90052223,0.04401311,0.07866214,-0.99592927
1314271476.94862103,0.04405718,0.07875129,-0.99592028
1314271476.99761510,0.04429179,0.07860559,-0.99592138
1314271477.05011749,0.04418932,0.07841081,-0.99594129
1314271477.09754157,0.04425725,0.07851226,-0.99593028
1314271477.14948940,0.04412269,0.07836563,-0.99594780
1314271477.20048833,0.04403690,0.07839755,-0.99594908
1314271477.24964213,0.04404872,0.07837104,-0.99595065
1314271477.29839706,0.04403840,0.07801143,-0.99597933
1314271477.34948778,0.04420805,0.07799173,-0.99597336
1314271477.39752364,0.04410204,0.07792762,-0.99598308
1314271477.44876575,0.04407782,0.07794775,-0.99598258
1314271477.50155616,0.04426063,0.07799079,-0.99597110
1314271477.54855132,0.04414627,0.07806065,-0.99597070
1314271477.58962250,0.04430444,0.07779401,-0.99598454
1314271477.64850855,0.04432195,0.07793541,-0.99597271
1314271477.70043039,0.04434493,0.07813981,-0.99595567
1314271477.74944925,0.04445578,0.07814094,-0.99595064
1314271477.80048943,0.04440601,0.07833834,-0.99593735
1314271477.85247755,0.04444517,0.07828206,-0.99594003
1314271477.90048862,0.04414708,0.07855435,-0.99593185
1314271477.94848680,0.04421586,0.07863545,-0.99592240
1314271477.98970056,0.04434962,0.07870846,-0.99591068
1314271478.04845667,0.04429394,0.07864377,-0.99591827
1314271478.09812737,0.04416451,0.07865969,-0.99592276
1314271478.14850569,0.04418332,0.07853142,-0.99593205
1314271478.20140433,0.04416826,0.07856190,-0.99593032
1314271478.25162148,0.04425248,0.07832570,-0.99594518
1314271478.30048966,0.04417612,0.07836152,-0.99594575
1314271478.34947348,0.04406991,0.07849804,-0.99593971
1314271478.40045762,0.04426129,0.07864465,-0.99591965
1314271478.44847250,0.04409898,0.07861556,-0.99592915
1314271478.50197005,0.04401069,0.07860507,-0.99593388
1314271478.54848981,0.04390001,0.07861198,-0.99593822
1314271478.60117817,0.04358979,0.07831150,-0.99597552
1314271478.64847922,0.04356053,0.07832135,-0.99597603
1314271478.70150733,0.04341552,0.07814660,-0.99599609
1314271478.74950099,0.04369129,0.07815962,-0.99598300
1314271478.80150700,0.04342062,0.07821991,-0.99599011
1314271478.84859848,0.04330682,0.07813404,-0.99600180
1314271478.89783931,0.04334344,0.07811511,-0.99600169
1314271478.94961023,0.04331563,0.07810126,-0.99600399
1314271479.00049639,0.04353065,0.07822867,-0.99598462
1314271479.04847884,0.04345906,0.07824244,-0.99598666
1314271479.10058308,0.04364651,0.07837156,-0.99596831
1314271479.14850807,0.04379062,0.07844281,-0.99595638
1314271479.19251847,0.04354518,0.07824703,-0.99598254
1314271479.24956393,0.04353855,0.07836118,-0.99597386
1314271479.29769063,0.04369326,0.07837578,-0.99596593
1314271479.34847903,0.04346405,0.07819878,-0.99598987
1314271479.40128422,0.04343035,0.07818179,-0.99599268
1314271479.45055938,0.04340800,0.07807916,-0.99600170
1314271479.49760103,0.04360049,0.07839994,-0.99596810
1314271479.54853249,0.04374014,0.07851259,-0.99595310
1314271479.60049868,0.04362858,0.07833906,-0.99597166
1314271479.64966178,0.04380022,0.07834662,-0.99596353
1314271479.69757295,0.04420555,0.07819699,-0.99595738
1314271479.74953175,0.04405237,0.07830772,-0.99595547
1314271479.80060959,0.04383271,0.07811674,-0.99598015
1314271479.85163403,0.04381924,0.07813505,-0.99597931
1314271479.89760947,0.04405124,0.07823799,-0.99596100
1314271479.94984961,0.04407888,0.07833323,-0.99595229
1314271479.98848915,0.04407921,0.07843757,-0.99594406
1314271480.04959202,0.04410529,0.07834513,-0.99595018
1314271480.09844542,0.04383201,0.07834221,-0.99596248
1314271480.14958715,0.04377810,0.07861277,-0.99594353
1314271480.19755411,0.04384917,0.07863286,-0.99593882
1314271480.24955177,0.04367086,0.07835063,-0.99596889
1314271480.30049300,0.04388737,0.07806064,-0.99598215
1314271480.34971833,0.04380822,0.07816614,-0.99597736
1314271480.40044856,0.04369186,0.07805863,-0.99599090
1314271480.44952822,0.04371401,0.07844679,-0.99595943
1314271480.49827695,0.04372392,0.07835329,-0.99596636
1314271480.54852152,0.04402185,0.07836876,-0.99595201
1314271480.60076070,0.04399351,0.07845501,-0.99594648
1314271480.64858127,0.04397601,0.07850451,-0.99594335
1314271480.69759631,0.04408245,0.07848269,-0.99594036
1314271480.74949527,0.04397663,0.07830599,-0.99595895
1314271480.78853464,0.04390960,0.07816863,-0.99597270
1314271480.84965634,0.04364079,0.07835053,-0.99597022
1314271480.89814019,0.04357325,0.07814275,-0.99598950
1314271480.94960833,0.04361116,0.07830759,-0.99597489
1314271481.00152445,0.04375676,0.07838773,-0.99596220
1314271481.05258560,0.04376549,0.07814449,-0.99598093
1314271481.10090709,0.04369052,0.07820300,-0.99597963
1314271481.14950824,0.04378048,0.07785269,-0.99600313
1314271481.20097780,0.04400138,0.07779748,-0.99599771
1314271481.24955654,0.04396697,0.07796301,-0.99598628
1314271481.30400825,0.04383786,0.07763595,-0.99601752
1314271481.34960127,0.04373227,0.07757867,-0.99602663
1314271481.40135384,0.04346431,0.07753068,-0.99604209
1314271481.44972038,0.04335035,0.07753514,-0.99604671
1314271481.50151706,0.04346725,0.07745621,-0.99604776
1314271481.54951239,0.04343637,0.07718451,-0.99607019
1314271481.60047793,0.04340796,0.07709237,-0.99607857
1314271481.64953828,0.04330340,0.07702478,-0.99608835
1314271481.69787717,0.04326069,0.07694407,-0.99609644
1314271481.74953794,0.04320805,0.07685802,-0.99610537
1314271481.80162740,0.04304039,0.07684396,-0.99611371
1314271481.85053802,0.04297268,0.07676319,-0.99612286
1314271481.88954115,0.04303603,0.07681455,-0.99611617
1314271481.94990897,0.04291455,0.07676847,-0.99612496
1314271482.00102496,0.04296269,0.07657103,-0.99613809
1314271482.04853940,0.04351323,0.07672859,-0.99610206
1314271482.09772539,0.04365685,0.07657420,-0.99610766
1314271482.14877033,0.04382747,0.07641755,-0.99611220
1314271482.20111823,0.04384148,0.07658760,-0.99609852
1314271482.24864411,0.04369763,0.07647384,-0.99611358
1314271482.30051327,0.04353740,0.07611827,-0.99614783
1314271482.34950423,0.04366091,0.07602018,-0.99614992
1314271482.38851213,0.04368470,0.07633359,-0.99612491
1314271482.44958758,0.04384125,0.07619639,-0.99612853
1314271482.49771762,0.04401538,0.07610497,-0.99612784
1314271482.54959536,0.04415068,0.07617227,-0.99611671
1314271482.59760451,0.04414968,0.07636035,-0.99610236
1314271482.64848399,0.04418429,0.07634057,-0.99610234
1314271482.70151806,0.04415277,0.07624434,-0.99611110
1314271482.74961996,0.04397565,0.07623266,-0.99611983
1314271482.80047059,0.04388772,0.07619573,-0.99612654
1314271482.84948635,0.04372955,0.07610281,-0.99614060
1314271482.89745545,0.04356590,0.07605196,-0.99615165
1314271482.94852686,0.04346064,0.07602224,-0.99615852
1314271482.99751592,0.04336107,0.07602384,-0.99616273
1314271483.05014324,0.04337709,0.07619690,-0.99614881
1314271483.09758663,0.04351653,0.07623528,-0.99613980
1314271483.14850020,0.04333562,0.07636634,-0.99613764
1314271483.18848562,0.04323901,0.07647527,-0.99613349
1314271483.24920821,0.04328021,0.07664756,-0.99611845
1314271483.29830766,0.04330674,0.07665281,-0.99611690
1314271483.35031891,0.04337416,0.07679718,-0.99610284
1314271483.38956475,0.04335154,0.07675546,-0.99610704
1314271483.44847417,0.04332675,0.07667225,-0.99611453
1314271483.49760675,0.04335326,0.07661567,-0.99611773
1314271483.55034947,0.04335453,0.07659149,-0.99611954
1314271483.60060096,0.04323862,0.07651427,-0.99613051
1314271483.64948750,0.04322934,0.07629166,-0.99614798
1314271483.69824815,0.04312801,0.07609712,-0.99616726
1314271483.74960256,0.04301500,0.07609907,-0.99617199
1314271483.80128980,0.04299707,0.07607796,-0.99617438
1314271483.84844637,0.04287752,0.07610062,-0.99617780
1314271483.88961673,0.04268663,0.07610635,-0.99618556
1314271483.95019841,0.04288229,0.07611570,-0.99617645
1314271484.00053859,0.04283592,0.07617808,-0.99617367
1314271484.04862237,0.04300870,0.07589936,-0.99618750
1314271484.10044122,0.04292809,0.07590466,-0.99619057
1314271484.14975405,0.04297812,0.07581075,-0.99619557
1314271484.20047283,0.04321393,0.07574729,-0.99619019
